When you browse on this site, cookies collect data to enhance your experience and personalize the content and advertising you see.
Visit our Privacy Policy to learn more. By continuing to use the site, you agree to this use of cookies and data.
  • en Suisse
  • Liste des pays
  • À 7 jours
  • Température de l'eau
  • Carte météo
  • Widgets météo
  • user-avatar
    Se connecter

    Météo par heure à Oleiros

    Ce jour, 23 Septembre, Lundi

    Heure Température Précipitation Vent Pression Humidité
    00:00 +15°C° 0 mm 4 m/s 755 mmHg 91%
    01:00 +15°C° 0 mm 4 m/s 755 mmHg 89%
    02:00 +15°C° 0 mm 4 m/s 755 mmHg 87%
    03:00 +15°C° 0.2 mm 4 m/s 755 mmHg 89%
    04:00 +15°C° 0.2 mm 4 m/s 755 mmHg 90%
    05:00 +15°C° 0 mm 4 m/s 755 mmHg 93%
    06:00 +15°C° 0.2 mm 5 m/s 755 mmHg 91%
    07:00 +16°C° 0.2 mm 5 m/s 755 mmHg 89%
    08:00 +16°C° 0.2 mm 6 m/s 755 mmHg 87%
    09:00 +17°C° 0.1 mm 6 m/s 755 mmHg 83%
    10:00 +17°C° 0.1 mm 6 m/s 755 mmHg 79%
    11:00 +19°C° 0.1 mm 6 m/s 755 mmHg 75%
    12:00 +19°C° 2 mm 6 m/s 755 mmHg 80%
    13:00 +17°C° 2 mm 6 m/s 755 mmHg 86%
    14:00 +16°C° 2 mm 6 m/s 754 mmHg 91%
    15:00 +17°C° 1 mm 6 m/s 754 mmHg 89%
    16:00 +17°C° 1 mm 6 m/s 754 mmHg 87%
    17:00 +19°C° 1 mm 6 m/s 754 mmHg 85%
    18:00 +19°C° 0.3 mm 6 m/s 754 mmHg 85%
    19:00 +19°C° 0.3 mm 6 m/s 754 mmHg 86%
    20:00 +18°C° 0.3 mm 7 m/s 754 mmHg 86%
    21:00 +19°C° 1.2 mm 6 m/s 754 mmHg 89%
    22:00 +19°C° 1.2 mm 6 m/s 753 mmHg 92%
    23:00 +19°C° 1.2 mm 6 m/s 753 mmHg 94%

    Demain, 24 Septembre, Mardi

    Heure Température Précipitation Vent Pression Humidité
    00:00 +19°C° 1.9 mm 6 m/s 753 mmHg 95%
    01:00 +19°C° 1.9 mm 6 m/s 754 mmHg 95%
    02:00 +19°C° 1.9 mm 5 m/s 754 mmHg 96%
    03:00 +19°C° 0.5 mm 5 m/s 754 mmHg 96%
    04:00 +19°C° 0.5 mm 5 m/s 754 mmHg 96%
    05:00 +18°C° 0.5 mm 4 m/s 754 mmHg 96%
    06:00 +18°C° 0.1 mm 4 m/s 755 mmHg 93%
    07:00 +18°C° 0.1 mm 4 m/s 755 mmHg 89%
    08:00 +18°C° 0.1 mm 4 m/s 756 mmHg 86%
    09:00 +19°C° 0.1 mm 4 m/s 756 mmHg 79%
    10:00 +20°C° 0.1 mm 5 m/s 756 mmHg 72%
    11:00 +21°C° 0.1 mm 5 m/s 756 mmHg 64%
    12:00 +20°C° 0 mm 5 m/s 756 mmHg 64%
    13:00 +20°C° 0 mm 5 m/s 756 mmHg 64%
    14:00 +20°C° 0 mm 5 m/s 756 mmHg 64%
    15:00 +19°C° 0.1 mm 5 m/s 756 mmHg 68%
    16:00 +18°C° 0.1 mm 4 m/s 757 mmHg 73%
    17:00 +17°C° 0.1 mm 4 m/s 757 mmHg 77%
    18:00 +16°C° 0.1 mm 3 m/s 757 mmHg 83%
    19:00 +14°C° 0.1 mm 3 m/s 758 mmHg 89%
    20:00 +13°C° 0.1 mm 3 m/s 758 mmHg 95%
    21:00 +13°C° 0.1 mm 3 m/s 758 mmHg 94%
    22:00 +14°C° 0.1 mm 3 m/s 758 mmHg 93%
    23:00 +14°C° 0.1 mm 3 m/s 758 mmHg 93%

    Après-demain, 25 Septembre, Mercredi

    Heure Température Précipitation Vent Pression Humidité
    00:00 +13°C° 0.1 mm 3 m/s 758 mmHg 94%
    01:00 +13°C° 0.1 mm 3 m/s 758 mmHg 96%
    02:00 +13°C° 0.1 mm 3 m/s 758 mmHg 97%
    03:00 +13°C° 0 mm 3 m/s 758 mmHg 97%
    04:00 +13°C° 0 mm 3 m/s 758 mmHg 97%
    05:00 +13°C° 0 mm 3 m/s 758 mmHg 97%
    06:00 +14°C° 0 mm 3 m/s 758 mmHg 93%
    07:00 +16°C° 0 mm 3 m/s 758 mmHg 89%
    08:00 +17°C° 0 mm 3 m/s 758 mmHg 85%
    09:00 +18°C° 0 mm 3 m/s 758 mmHg 80%
    10:00 +19°C° 0 mm 3 m/s 758 mmHg 75%
    11:00 +20°C° 0 mm 4 m/s 758 mmHg 70%
    12:00 +20°C° 0.1 mm 4 m/s 758 mmHg 70%
    13:00 +20°C° 0.1 mm 4 m/s 758 mmHg 70%
    14:00 +20°C° 0.1 mm 4 m/s 758 mmHg 70%
    15:00 +20°C° 0 mm 3 m/s 757 mmHg 74%
    16:00 +19°C° 0 mm 3 m/s 757 mmHg 78%
    17:00 +18°C° 0 mm 3 m/s 757 mmHg 82%
    18:00 +17°C° 0 mm 3 m/s 757 mmHg 87%
    19:00 +16°C° 0 mm 3 m/s 758 mmHg 91%
    20:00 +14°C° 0 mm 3 m/s 758 mmHg 96%
    21:00 +14°C° 0 mm 3 m/s 758 mmHg 95%
    22:00 +14°C° 0 mm 3 m/s 758 mmHg 93%
    23:00 +14°C° 0 mm 3 m/s 758 mmHg 92%

    26 Septembre, Jeudi

    Heure Température Précipitation Vent Pression Humidité
    00:00 +14°C° 0 mm 3 m/s 758 mmHg 92%
    01:00 +14°C° 0 mm 3 m/s 758 mmHg 92%
    02:00 +14°C° 0 mm 3 m/s 758 mmHg 92%
    03:00 +14°C° 0 mm 3 m/s 757 mmHg 94%
    04:00 +14°C° 0 mm 2 m/s 757 mmHg 95%
    05:00 +14°C° 0 mm 2 m/s 757 mmHg 96%
    06:00 +14°C° 0 mm 3 m/s 757 mmHg 90%
    07:00 +17°C° 0 mm 3 m/s 758 mmHg 83%
    08:00 +18°C° 0 mm 3 m/s 758 mmHg 77%
    09:00 +19°C° 0 mm 3 m/s 758 mmHg 73%
    10:00 +20°C° 0 mm 3 m/s 758 mmHg 68%
    11:00 +21°C° 0 mm 3 m/s 758 mmHg 64%
    12:00 +21°C° 0 mm 3 m/s 757 mmHg 62%
    13:00 +22°C° 0 mm 3 m/s 757 mmHg 61%
    14:00 +22°C° 0 mm 3 m/s 757 mmHg 59%
    15:00 +21°C° 0 mm 3 m/s 757 mmHg 65%
    16:00 +20°C° 0 mm 3 m/s 757 mmHg 71%
    17:00 +19°C° 0 mm 3 m/s 757 mmHg 77%
    18:00 +17°C° 0 mm 3 m/s 758 mmHg 83%
    19:00 +16°C° 0 mm 3 m/s 758 mmHg 88%
    20:00 +14°C° 0 mm 3 m/s 758 mmHg 94%
    21:00 +14°C° 0 mm 3 m/s 758 mmHg 93%
    22:00 +16°C° 0 mm 3 m/s 758 mmHg 91%
    23:00 +16°C° 0 mm 3 m/s 759 mmHg 90%

    27 Septembre, Vendredi

    Heure Température Précipitation Vent Pression Humidité
    00:00 +16°C° 0.1 mm 2 m/s 758 mmHg 91%
    01:00 +16°C° 0.1 mm 2 m/s 758 mmHg 92%
    02:00 +16°C° 0.1 mm 2 m/s 758 mmHg 93%
    03:00 +16°C° 0.1 mm 2 m/s 758 mmHg 93%
    04:00 +16°C° 0.1 mm 2 m/s 759 mmHg 94%
    05:00 +16°C° 0.1 mm 2 m/s 759 mmHg 94%
    06:00 +16°C° 0 mm 2 m/s 759 mmHg 89%
    07:00 +17°C° 0 mm 2 m/s 759 mmHg 83%
    08:00 +18°C° 0 mm 2 m/s 759 mmHg 77%
    09:00 +19°C° 0 mm 2 m/s 759 mmHg 71%
    10:00 +20°C° 0 mm 2 m/s 759 mmHg 64%
    11:00 +21°C° 0 mm 2 m/s 760 mmHg 58%
    12:00 +21°C° 0 mm 2 m/s 759 mmHg 58%
    13:00 +21°C° 0 mm 3 m/s 759 mmHg 58%
    14:00 +20°C° 0 mm 3 m/s 759 mmHg 58%
    15:00 +19°C° 0 mm 2 m/s 759 mmHg 65%
    16:00 +17°C° 0 mm 2 m/s 759 mmHg 73%
    17:00 +16°C° 0 mm 2 m/s 759 mmHg 80%
    18:00 +15°C° 0 mm 1 m/s 759 mmHg 85%
    19:00 +14°C° 0 mm 1 m/s 759 mmHg 91%
    20:00 +13°C° 0 mm 1 m/s 760 mmHg 96%
    21:00 +12°C° 0 mm 1 m/s 759 mmHg 96%
    22:00 +12°C° 0 mm 1 m/s 759 mmHg 96%
    23:00 +12°C° 0 mm 1 m/s 759 mmHg 97%

    28 Septembre, Samedi

    Heure Température Précipitation Vent Pression Humidité
    00:00 +12°C° 0 mm 1 m/s 759 mmHg 97%
    01:00 +12°C° 0 mm 1 m/s 759 mmHg 97%
    02:00 +11°C° 0 mm 1 m/s 758 mmHg 97%
    03:00 +11°C° 0 mm 1 m/s 758 mmHg 97%
    04:00 +11°C° 0 mm 1 m/s 758 mmHg 97%
    05:00 +11°C° 0 mm 1 m/s 758 mmHg 97%
    06:00 +13°C° 0 mm 1 m/s 758 mmHg 89%
    07:00 +15°C° 0 mm 1 m/s 758 mmHg 82%
    08:00 +16°C° 0 mm 1 m/s 758 mmHg 75%
    09:00 +19°C° 0 mm 1 m/s 758 mmHg 67%
    10:00 +21°C° 0 mm 1 m/s 758 mmHg 59%
    11:00 +22°C° 0 mm 1 m/s 758 mmHg 52%
    12:00 +22°C° 0 mm 1 m/s 757 mmHg 52%
    13:00 +21°C° 0 mm 2 m/s 757 mmHg 52%
    14:00 +23°C° 0 mm 2 m/s 756 mmHg 53%
    15:00 +20°C° 0 mm 2 m/s 756 mmHg 62%
    16:00 +19°C° 0 mm 1 m/s 756 mmHg 72%
    17:00 +16°C° 0 mm 1 m/s 756 mmHg 81%
    18:00 +16°C° 0 mm 1 m/s 756 mmHg 83%
    19:00 +15°C° 0 mm 2 m/s 756 mmHg 84%
    20:00 +15°C° 0 mm 2 m/s 756 mmHg 86%
    21:00 +15°C° 0 mm 2 m/s 756 mmHg 87%
    22:00 +14°C° 0 mm 2 m/s 756 mmHg 88%
    23:00 +13°C° 0 mm 3 m/s 756 mmHg 89%
    Voir plus